BREEZE-KM DEB, 41721

Orbit data source: Space-Track

BREEZE-KM DEB, 41721 is space debris in LEO originally from a launch on Tue, 31 Mar 2015 UTC launched from the Plesetsk Missile And Space Complex (PKMTR). Debris objects in space refer to the collection of defunct objects orbiting the Earth. Examples of debris include non-operational satellites, rocket bodies, and fragments generated from explosions, collisions, or faulty payload assembly.

Loading next visibility...
Identifier
41721, 2015-020J
Orbit
LEO
Country
Flag of CISCIS
Related business
Manufacturer
Khrunichev
Mission
Spacecraft
Bus & Motor
Unknown
Mass
Unknown
Launch date (UTC)
2015-03-31 (11 years ago)
Launch vehicle
Unknown
Launch site
Plesetsk Missile And Space Complex (PKMTR)
Object type
Payload
Rocket body
Debris
Shape & HBR
Unknown shape, 0.1 m
Radar Cross Section
Medium (>0.1 m² and <1 m²)

Expand to show TLE details & history
Last TLE update: 2 days ago

TLE from 2 days ago
0 BREEZE-KM DEB
1 41721U 15020J   26196.79067306  .00000033  00000-0  85959-4 0  9991
2 41721  82.4890 216.4134 0246074  71.3303 291.4337 12.74752381515830
Epoch: 2026-07-15T18:58Z
TLE epoch observation values (Epoch: 2026-07-15T18:58:34.152Z)
Latitude
0.00001°
Longitude
-1.87032°
Altitude
1,299.885 km
Speed
7.237 km/s
True Right ascension
14h 25m 39s
True Declination
0° 00' 00"
Sunlit
Object was in daylight at epoch
Visualization orbit readout
Latitude
Unknown
Longitude
Unknown
Altitude
Unknown
Speed
Unknown
Apparent Right ascension
Unknown
Apparent Declination
Unknown
Sunlit
N/A
Visualization observer readout
Local Sidereal Time
22:02:48
Azimuth
Unknown
Elevation
Unknown
Doppler factor
Unknown
Orbital elements
Apogee altitude
1,550.359 km
Perigee altitude
1,169.531 km
Semi-major axis
7,738.082 km
Eccentricity
0.02461
Inclination
82.489°
RAAN
216.4134°
Arg. of periapsis
71.3303°
True anomaly
288.78004°
Mean anomaly
291.4337°
Eccentric anomaly
290.10975°
Mean motion
3.18855 °/min
Orbital period
112.9 mins
BSTAR
0.000085959
Loading maneuver chart data...
Computing Atmospheric mass density...
Loading historical data...
Loading historical data...
Loading historical data...
Loading historical data...
Loading historical data...
Loading historical data...
Loading historical data...

Documentation

Showing up to 5 results
|